Texas Shootout - LOFT FLY

Station: LOFT CHECK - T Race

Distance: 1 Miles    

Release: 07-Sep-2017 07:20

Weather Release:    Arrival:

Wind at Release:     Wind at Arrival:

Temp at Release: °    Temp at Arrival: °

Lofts: 162

Birds: 950

Clocked: 948

LOFT FLYING FOR THE LAST 2 DAYS
Drops Pos Breeder Pigeon Name Color Sex Ent Arrival Speed To Win Eligible
52 Richard Callahan - MO 1683-AU17-AA BB H 1 2017-09-14 10:10:50.51 0.210 138:13:3 Yes
52 H & H Loft - TX 6950-AU17-VK BB H 2 2017-09-14 10:10:50.56 0.210 138:13:3 Yes
52 Champ Camp - IN 0191-AU17-CHMP BB H 7 2017-09-14 10:10:50.79 0.210 138:13:3 Yes
52 Richard Callahan - MO 1669-AU17-AA BC H 4 2017-09-14 10:10:51.26 0.210 138:13:3 Yes
52 Aok Loft - NE 0958-AU17-OMAH BB H 4 2017-09-14 10:10:51.34 0.210 138:13:3 Yes
52 The Firm - TX 1185-IF17-KOLV Jubilea DCWF C 2 2017-09-14 10:10:51.54 0.210 138:13:3 Yes
52 Elton Dinga - TX 12086-AU17-AA BB H 22 2017-09-14 10:10:51.67 0.210 138:13:3 Yes
52 Armando & Rameriz Loft - TX 29375-MX17-FMC BB C 4 2017-09-14 10:10:51.76 0.210 138:13:3 Yes
52 Baldwin / Tilson - NC 7122-AU17-TNTL BB H 1 2017-09-14 10:10:51.85 0.210 138:13:3 Yes
52 Southern Belle - GA 0046-AU17-NEA BB H 2 2017-09-14 10:10:52.28 0.210 138:13:3 Yes
52 Bill Traw - TX 1281-AU17-GHC SIL H 5 2017-09-14 10:10:52.49 0.210 138:13:3 Yes
52 O & L De Vries - ON 2429-AU17-OL BB C 2 2017-09-14 10:10:52.54 0.210 138:13:3 Yes
52 John Coker - TX 34091-AU17-AA BC C 3 2017-09-14 10:10:52.73 0.210 138:13:3 Yes
52 Buck`S - TX 34102-AU17-AA SLAT C 2 2017-09-14 10:10:52.81 0.210 138:13:3 Yes
52 Little Reata Loft - TX 17330-AU17-JETT BB H 2 2017-09-14 10:10:53.65 0.210 138:13:3 Yes
52 Southern Legacy Loft - TX 0428-AU17-SLL BB H 2 2017-09-14 10:10:53.87 0.210 138:13:3 Yes
52 English Syndicate - UK 2926-AU17-TEX BB H 4 2017-09-14 10:10:54.12 0.210 138:13:3 Yes
52 Shallow Pockets - TX 0064-AU17-SHAL BC H 4 2017-09-14 10:10:54.34 0.210 138:13:3 Yes
52 H & H Loft - TX 6948-AU17-VK BB H 1 2017-09-14 10:10:54.76 0.210 138:13:3 Yes
52 Vick Corso - LA 1293-AU17-CRSO BC C 4 2017-09-14 10:10:54.88 0.210 138:13:3 Yes
52 Rossi Loft Llc - WI 2095-AU17-KEN BB C 2 2017-09-14 10:10:55.81 0.210 138:13:3 Yes
52 Milestone Loft - CA 0189-AU17-SD GRIZ H 1 2017-09-14 10:10:56.01 0.210 138:13:3 Yes
52 Bynum Family Lofts - TX 0230-AU17-BFL BBSP H 3 2017-09-14 10:10:56.28 0.210 138:13:3 Yes
52 Kibria Rpl - TX 0063-AU17-DEN BWFP C 3 2017-09-14 10:10:56.60 0.210 138:13:3 Yes
52 Elton Dinga - TX 12072-AU17-AA BB H 16 2017-09-14 10:10:57.10 0.210 138:13:3 Yes
52 Marengo Creek Farms - AL 2769-AU17-MCF BB H 2 2017-09-14 10:10:58.57 0.210 138:13:3 Yes
52 Johnson/Mailhes - LA 0162-AU17-LAF BC C 3 2017-09-14 10:10:59.12 0.210 138:13:3 Yes
52 John Coker - TX 34092-AU17-AA BB H 2 2017-09-14 10:10:59.35 0.210 138:13:3 Yes
52 Charlie Barbiere - NJ 1943-IF17-BSC BC H 1 2017-09-14 10:11:01.13 0.210 138:13:3 Yes
52 Elton Dinga - TX 12128-AU17-AA BB C 7 2017-09-14 10:11:01.43 0.210 138:13:3 Yes
52 Band Of Brothers - TX 0087-AU17-SHAL GRIZ C 4 2017-09-14 10:11:01.60 0.210 138:13:3 Yes
52 Larry Payne - KS 0280-AU17-LPL GRZ H 1 2017-09-14 10:11:02.07 0.210 138:13:3 Yes
52 Scorpion Loft - TX 14722-MX17-CNU BB H 4 2017-09-14 10:11:02.29 0.210 138:13:3 Yes
52 Southern Legacy Loft - TX 0459-AU17-SLL BB C 5 2017-09-14 10:11:02.62 0.210 138:13:3 Yes
52 Sonder Loft - CA 21721-AU17-JEDD BB H 1 2017-09-14 10:11:03.13 0.210 138:13:3 Yes
52 Ruiz Loft - TX 29302-MX17-FMC BC H 2 2017-09-14 10:11:03.17 0.210 138:13:3 Yes
52 Gold Star Loft - CA 1302-AU17-STON BC H 1 2017-09-14 10:11:03.59 0.210 138:13:3 Yes
52 Yendez Loft - TX 0090-AU17-YEND BBWF H 1 2017-09-14 10:11:03.62 0.210 138:13:3 Yes
52 Racing Pigeon Mall - WA 0707-AU17-RPM BBWF C 2 2017-09-14 10:11:03.67 0.210 138:13:3 Yes
52 Quest Syndicate - TX 16070-AU17-QS BB C 1 2017-09-14 10:11:03.73 0.210 138:13:3 Yes
52 Holleys Silver Star - TX 0944-AU17-DEN BBPD H 2 2017-09-14 10:11:04.42 0.210 138:13:3 Yes
52 Tony Alvarado - TX 0064-AU17-WETT BB H 3 2017-09-14 10:11:04.45 0.210 138:13:3 Yes
52 Larry Payne - KS 0272-AU17-LPL SLT H 3 2017-09-14 10:11:04.51 0.210 138:13:3 Yes
52 John Coker - TX 34096-AU17-AA BC C 4 2017-09-14 10:11:04.78 0.210 138:13:3 Yes
52 H & H Loft - TX 6963-AU17-VK BB C 3 2017-09-14 10:11:05.10 0.210 138:13:3 Yes
52 Sonder Loft - CA 21727-AU17-JEDD BC H 3 2017-09-14 10:11:05.15 0.210 138:13:3 Yes
52 Hillbilly Loft - TX 17601-AU17-AA BB H 3 2017-09-14 10:11:05.28 0.210 138:13:3 Yes
52 Elton Dinga - TX 12148-AU17-AA BB H 18 2017-09-14 10:11:05.53 0.210 138:13:3 Yes
52 Holleys Silver Star - TX 0937-AU17-DEN BC H 1 2017-09-14 10:11:05.54 0.210 138:13:3 Yes
52 Tony Alvarado - TX 0062-AU17-WETT BC H 2 2017-09-14 10:11:05.93 0.210 138:13:3 Yes
52 Sky King Loft - TX 16905-AU17-QS BC H 1 2017-09-14 10:11:06.10 0.210 138:13:3 Yes
52 L & L Loft - AL 17034-AU17-LL BC H 7 2017-09-14 10:11:06.34 0.210 138:13:3 Yes
52 Flying D / Matt Mitchell - TX 0319-AU17-FLYD BWF H 1 2017-09-14 10:11:06.53 0.210 138:13:3 Yes
52 Scorpion Loft - TX 14772-MX17-CNU BB H 1 2017-09-14 10:11:06.54 0.210 138:13:3 Yes
52 Utaz Team - UT 0985-AU17-PSC BB C 5 2017-09-14 10:11:06.95 0.210 138:13:3 Yes
52 Tex-Mex Loft - TX 0608-AU17-NSL Spook BLK C 4 2017-09-14 10:11:07.18 0.210 138:13:3 Yes
52 Southern Legacy Loft - TX 0433-AU17-SLL BB H 3 2017-09-14 10:11:07.31 0.210 138:13:3 Yes
52 Tony Alvarado - TX 0058-AU17-WETT BCWF H 1 2017-09-14 10:11:07.54 0.210 138:13:3 Yes
52 Shiloft - PA 0067-IF17-MIN BB H 3 2017-09-14 10:11:07.73 0.210 138:13:3 Yes
52 Mlb Team - TX 2945-AU17-TEX BB H 1 2017-09-14 10:11:07.82 0.210 138:13:3 Yes
52 Kanetzky & Vazquez Loft - TX 2660-AU17-TEX BC H 2 2017-09-14 10:11:08.32 0.210 138:13:3 Yes
52 A D L Loft - IL 0176-AU17-ADL BB C 7 2017-09-14 10:11:08.82 0.210 138:13:3 Yes
52 Gold Star Loft - CA 1311-AU17-STON BB H 3 2017-09-14 10:11:10.31 0.210 138:13:3 Yes
52 Jokers Wild - CA 0334-AU17-JOKE BB C 1 2017-09-14 10:11:10.59 0.210 138:13:3 Yes
52 Two-Be-Won - NV 17157-AU17-TBW BWFP H 1 2017-09-14 10:11:10.99 0.210 138:13:3 Yes
52 Bill Wisdom - TX 0314-AU17-DEN BB H 2 2017-09-14 10:11:11.07 0.210 138:13:3 Died
52 Cbs & Steve - OK 1850-AU17-CBS BB H 1 2017-09-14 10:11:11.59 0.210 138:13:3 Yes
52 Larry Payne - KS 0277-AU17-LPL BPWF C 4 2017-09-14 10:11:11.73 0.210 138:13:3 Yes
52 Ledet-Gutrz - LA 17491-AU17-LG BC C 1 2017-09-14 10:11:12.18 0.210 138:13:3 Yes
52 A P C Loft - TX 17333-AU17-APC BB H 9 2017-09-14 10:11:12.23 0.210 138:13:3 Yes
52 Dekeratry Loft - TX 7495-AU17-HOT BGRZ C 1 2017-09-14 10:11:13.03 0.210 138:13:3 Yes
52 Ed Minvielle - LA 17229-AU17-A BC C 2 2017-09-14 10:11:15.92 0.210 138:13:3 Yes
52 Bynum Family Lofts - TX 0250-AU17-BFL DCSP H 1 2017-09-14 10:11:17.06 0.210 138:13:3 Yes
52 Smith & Smith 1 - TX 17060-AU17-ACES BWFP C 5 2017-09-14 10:11:17.48 0.210 138:13:3 Yes
52 Utaz Team - UT 0935-AU17-PSC BB C 1 2017-09-14 10:11:18.71 0.210 138:13:3 Yes
52 Apollo Loft 2 - IL 2683-AU17-APLO BB C 3 2017-09-14 10:11:19.73 0.210 138:13:3 Yes
52 Elton Dinga - TX 12075-AU17-AA MIL C 17 2017-09-14 10:11:20.13 0.210 138:13:3 Yes
52 New Orleans Boys - LA 1363-AU17-SLI BBWF H 2 2017-09-14 10:11:20.29 0.210 138:13:3 Yes
52 Tex-Mex Loft - TX 0645-AU17-NSL 22 BLSP H 5 2017-09-14 10:11:21.03 0.210 138:13:3 Yes
52 Wolf Den & Family Loft - IL 0055-AU17-WOLF BB C 4 2017-09-14 10:11:21.17 0.210 138:13:3 Yes
52 L & L Loft - AL 17030-AU17-LL MIL H 6 2017-09-14 10:11:21.62 0.210 138:13:3 Yes
52 Larry Payne - KS 0275-AU17-LPL BB H 5 2017-09-14 10:11:22.07 0.210 138:13:3 Yes
52 Holleys Silver Star - TX 0941-AU17-DEN RC C 3 2017-09-14 10:11:22.59 0.210 138:13:3 Yes
52 Elton Dinga - TX 12092-AU17-AA BB H 28 2017-09-14 10:11:22.68 0.210 138:13:3 Yes
52 T & T Lofts - TX 2090-AU17-TEX BB H 3 2017-09-14 10:11:22.76 0.210 138:13:3 Yes
52 Elton Dinga - TX 12163-AU17-AA BB H 8 2017-09-14 10:11:23.28 0.210 138:13:3 Yes
52 Si Se Puede Farm - TX 7320-AU17-PDP BB H 3 2017-09-14 10:11:23.96 0.210 138:13:3 Yes
52 Morningside Racing Loft - TX 91181-AU17-MSRL BB C 1 2017-09-14 10:11:24.06 0.210 138:13:3 Yes
52 Liu Loft - NC 8883-AU17-LIU BC H 1 2017-09-14 10:11:24.10 0.210 138:13:3 Yes
52 Timberline Speed Loft - TX 0815-AU17-TSL BB H 1 2017-09-14 10:11:24.38 0.210 138:13:3 Yes
52 Elton Dinga - TX 12065-AU17-AA DC H 9 2017-09-14 10:11:24.81 0.210 138:13:3 Yes
52 Elton Dinga - TX 12115-AU17-AA BB C 4 2017-09-14 10:11:25.31 0.210 138:13:3 Yes
52 Nesneb Racing Loft - AL 17104-AU17-MOB BB C 1 2017-09-14 10:11:25.38 0.210 138:13:3 Yes
52 Racine - WI 0596-AU17-RAC BB H 4 2017-09-14 10:11:25.45 0.210 138:13:3 Yes
52 Tex-Mex Loft - TX 0612-AU17-NSL $700 BBWF C 9 2017-09-14 10:11:25.49 0.210 138:13:3 Yes
52 Buck`S - TX 2043-AU17-KBUC BB H 4 2017-09-14 10:11:25.71 0.210 138:13:3 Yes
52 Elton Dinga - TX 12066-AU17-AA BC H 32 2017-09-14 10:11:25.90 0.210 138:13:3 Yes
52 Quest Syndicate/Any Given Day Loft - TX 17098-AU17-AGD BB H 4 2017-09-14 10:11:26.31 0.210 138:13:3 Yes
52 Cbs & Steve - OK 1465-AU17-CBS BC C 3 2017-09-14 10:11:26.45 0.210 138:13:3 Yes
52 Duane Gragg - CA 0754-AU17-KEYH BB H 2 2017-09-14 10:11:26.73 0.210 138:13:3 Yes

There are 989 bird records

Note: These Race Results are unofficial and subject to change until verified by the Race Committee and declared final.